Regional Weather Roundup
Issued by NWS

Home | Current Version | Previous Version | Text Only | Print | Product List | Glossary Off
Versions: 1 2 3 4 5 6 7 8 9 10 11 12 13 14 15 16 17 18 19 20 21 22 23 24 25 26 27 28 29 30 31 32 33 34 35 36 37 38 39 40 41 42 43 44 45 46 47 48 49 50

000
ASUS43 KMPX 311101
RWRMN
WEATHER ROUNDUP FOR MINNESOTA
NATIONAL WEATHER SERVICE TWIN CITIES/CHANHASSEN MN
600 AM CDT FRI JUL 31 2015


NOTE: "FAIR" INDICATES FEW OR NO CLOUDS BELOW 12,000 FEET WITH NO
SIGNIFICANT WEATHER AND/OR OBSTRUCTIONS TO VISIBILITY. N/A MEANS
CURRENT SKY AND/OR WEATHER CONDITIONS ARE NOT AVAILABLE.

MNZ060>063-068>070-311200-
   Twin Cities Metro

CITY           SKY/WX    TMP DP  RH WIND       PRES   REMARKS
TWIN CITIES    CLEAR     66  55  67 W8        30.05R
ST PAUL        CLEAR     66  53  63 NW9       30.04R
CRYSTAL        CLEAR     64  55  72 W8        30.04R
BLAINE         CLEAR     66  55  68 W8        30.04R
LAKEVILLE      CLEAR     61  57  88 W5        30.06R
EDEN PRAIRIE   CLEAR     64  56  75 W6        30.05R
SOUTH ST PAUL  CLEAR     65  54  65 W7        30.03S
LAKE ELMO      FAIR      64  54  68 W6        30.04S
$$
MNZ001>005-007-008-013>017-022>024-027-028-311200-
   Northwest Minnesota

CITY           SKY/WX    TMP DP  RH WIND       PRES   REMARKS
BEMIDJI        CLEAR     56  50  79 W10       30.02R
HALLOCK        CLEAR     54  50  87 W5        30.00S
ROSEAU         CLEAR     55  52  88 W7        29.98S
WARROAD        CLEAR     55  52  88 W8        29.98R
THIEF RVR FALL CLEAR     54  50  87 W6        30.03R
CROOKSTON      CLEAR     54  50  87 W6        30.04S
FOSSTON        CLEAR     54  48  82 W5        30.05R
DETROIT LAKES  CLEAR     61  50  67 NW8       30.08R
MOORHEAD       CLEAR     55  52  88 W7        30.08S
PARK RAPIDS    CLEAR     55  50  83 W8        30.04S
MAHNOMEN       FAIR      54  51  88 W7        30.05R
$$
MNZ006-009>011-018-025>026-311200-
   North Central Minnesota

CITY           SKY/WX    TMP DP  RH WIND       PRES   REMARKS
BAUDETTE       CLEAR     56  51  84 W8        29.95R
FLAG ISLAND    CLEAR     59  54  82 W13       29.93R
INTL FALLS     CLEAR     54  53  97 W8        29.92R
WASKISH        CLEAR     61  55  82 W15G21    29.98R
BIG FORK       CLEAR     57  52  82 W5        29.97R
LONGVILLE      CLEAR     57  52  82 W6        30.01R
GRAND RAPIDS   CLEAR     61  48  63 W10       29.98S
CRANE LAKE     CLEAR     55  54  94 W2        29.92S
ORR            CLEAR     55  50  82 CALM      29.92R
COOK           PTCLDY    54  52  94 CALM      29.95R
WALKER         FAIR      56  49  77 W8        30.01S
$$
MNZ012-019>021-037-311200-
   Northeast Minnesota

CITY           SKY/WX    TMP DP  RH WIND       PRES   REMARKS
DULUTH         CLEAR     60  52  74 W9        29.95R
ELY            CLEAR     55  54  94 W5        29.92R
HIBBING        CLEAR     58  52  80 W5        29.95R
EVELETH        CLEAR     59  52  77 W7        29.95S
DULUTH HARBOR  CLEAR     64  55  72 W13       29.94R
TWO HARBORS    CLEAR     63  55  77 W3        29.91R
SILVER BAY     CLEAR     59  54  82 CALM      29.89R
GRAND MARAIS     N/A     62  54  74 NW7G21    29.83R
G MARAIS ARPRT   N/A     54  50  87 W7        29.88R
$$
MNZ029>031-032-039>041-046>048-054>057-064-311200-
   West Central Minnesota

CITY           SKY/WX    TMP DP  RH WIND       PRES   REMARKS
FERGUS FALLS   CLEAR     54  54 100 CALM      30.09S
WHEATON        CLEAR     55  52  88 W6        30.13S
MORRIS         CLEAR     57  54  88 W7        30.10S
ALEXANDRIA     CLEAR     58  55  90 W8        30.11R
ELBOW LAKE     FAIR      55  53  91 W5        30.10S
WADENA         CLEAR     55  50  82 W6        30.06S
GLENWOOD       CLEAR     57  55  94 W7        30.11R
APPLETON       CLEAR     55  54  94 W3        30.12R
BENSON         CLEAR     55  52  88 CALM      30.11S
ORTONVILLE     CLEAR     63  54  72 W5        30.12S
MADISON        CLEAR     55  52  88 CALM      30.12S
WILLMAR        FAIR      57  57 100 W6        30.13R
$$
MNZ033>034-036-042>043-049>051-058-059-311200-
   Central Minnesota

CITY           SKY/WX    TMP DP  RH WIND       PRES   REMARKS
ST CLOUD       CLEAR     62  53  72 W8        30.05R
SAUK CENTRE    FAIR      58  54  88 W8        30.09R
PAYNESVILLE    CLEAR     51  51  99 SW5       30.10R
AITKIN         CLEAR     61  52  72 W3        30.00R
PINE RIVER     CLEAR     57  52  82 W3        30.06R
BRAINERD       CLEAR     62  51  67 W9        30.03S
STAPLES        CLEAR     55  50  82 W8        30.05S
LONG PRAIRIE   FAIR      59  52  77 SW7       30.08R
LITTLE FALLS   CLEAR     59  50  72 W3        30.05S
LITCHFIELD     CLEAR     63  59  88 W6        30.10R
BUFFALO        CLEAR     62  56  80 W7        30.07R
$$
MNZ037-044-045-052-053-311200-
   East Central Minnesota

CITY           SKY/WX    TMP DP  RH WIND       PRES   REMARKS
PRINCETON      CLEAR     61  54  77 W5        30.04S
MORA           CLEAR     59  50  72 W7        30.03S
CAMBRIDGE      CLEAR     64  52  63 W7        30.02R
RUSH CITY      MOCLDY    59  54  81 W3        30.02S
MOOSE LAKE     CLEAR     57  52  82 W5        29.97R
HINCKLEY       FAIR      57  54  88 W7        30.00R
CLOQUET        CLEAR     61  50  67 W8        29.97R
MCGREGOR       CLEAR     59  52  77 W7        30.00S
$$
MNZ071>073-080-081-089-090-097-098-311200-
   Southwest Minnesota

CITY           SKY/WX    TMP DP  RH WIND       PRES   REMARKS
MONTEVIDEO     CLEAR     57  54  88 NW6       30.14R
GRANITE FALLS  CLEAR     56  54  92 W6        30.14R
CANBY          CLEAR     59  53  80 W5        30.14S
MARSHALL       CLEAR     59  52  77 W7        30.14R
REDWOOD FALLS  CLEAR     60  56  86 NW7       30.11R
OLIVIA         CLEAR     57  52  82 NW5       30.11R
PIPESTONE      PTCLDY    61  57  88 CALM      30.15R
WINDOM         MOCLDY    59  57  94 NW3       30.13S
WORTHINGTON    MOCLDY    61  54  77 W3        30.14S
JACKSON        PTCLDY    61  59  94 SW5       30.13S
TRACY          PTCLDY    63  55  77 NW7       30.14R
SLAYTON        CLOUDY    62  58  86 CALM      30.15S
$$
MNZ065>067-074>077-082>085-091>093-311200-
   South Central Minnesota

CITY           SKY/WX    TMP DP  RH WIND       PRES   REMARKS
MANKATO        CLEAR     63  55  77 W7        30.10R
NEW ULM        CLEAR     57  57 100 W6        30.10S
ST JAMES       CLEAR     61  57  88 W8        30.12R
FAIRMONT       CLEAR     63  54  72 CALM      30.11R
GLENCOE        CLEAR     61  59  93 W5        30.08S
FARIBAULT      CLEAR     61  57  88 W5        30.08R
OWATONNA       CLEAR     61  57  88 CALM      30.08S
WASECA         CLEAR     59  57  94 W5        30.10S
ALBERT LEA     FAIR      64  61  88 W6        30.10R
$$
MNZ078>079-086>088-094>096-311200-
   Southeast Minnesota

CITY           SKY/WX    TMP DP  RH WIND       PRES   REMARKS
ROCHESTER      CLEAR     62  59  90 W12       30.08R
RED WING       CLEAR     61  59  94 W5        30.02S
STANTON        CLEAR     63  57  82 W5        30.05R
DODGE CENTER   CLEAR     63  59  88 W8        30.08S
WINONA         CLEAR     61  59  94 CALM      30.02S
AUSTIN         CLEAR     66  61  82 W9        30.09R
PRESTON        CLEAR     62  57  84 W9        30.07S
$$
ABBREVIATIONS USED IN REMARKS
   TC - TEMPERATURES IN CELSIUS
  WCI - WIND CHILL INDEX
   HX - HEAT INDEX
  VSB - VISIBILITY
$$


USA.gov is the U.S. government's official web portal to all federal, state and local government web resources and services.